Wetbulb
58.67 59.33 60.04 60.31 60.45 60.67 60.85 60.82 60.59 60.46 60.72 60.98 60.26 60.62 60.22 60.27 60.09 56.18 49.98 53.19 54.77 60.20 58.08 48.86 47.61 47.20 47.93 45.44 43.87 41.86 37.92 34.55 35.95 36.41 37.60 39.98 40.32 40.19 41.58 42.47 42.63 45.05 47.57 48.50 58.64
58.20 59.36 59.75 60.08 60.18 60.22 60.15 60.02 59.75 59.45 59.59 59.76 59.86 60.17 59.80 59.94 54.79 51.52 58.66 61.00 61.21 60.15 49.10 46.54 44.88 46.40 44.46 43.61 42.58 40.28 36.76 38.05 39.14 37.89 39.15 40.86 39.77 41.92 41.72 41.81 42.11 42.74 46.20 51.02 58.37
58.69 59.36 59.46 59.79 59.80 59.70 59.56 59.26 59.17 59.16 59.08 59.34 59.27 59.45 59.55 57.76 49.45 48.97 60.26 60.71 60.74 57.63 49.81 47.62 46.70 45.46 42.32 41.80 40.76 38.26 38.19 39.43 39.83 40.16 42.52 42.04 38.92 40.13 40.93 39.02 42.67 43.26 45.87 54.16 56.21
58.86 59.41 59.37 59.31 59.22 59.12 58.96 58.79 58.57 58.31 58.10 58.36 59.13 59.10 59.24 54.63 37.65 50.36 59.42 60.43 59.76 51.24 49.38 46.36 44.61 41.20 40.43 40.10 41.45 38.30 39.18 40.27 42.51 42.60 41.63 41.86 41.52 38.99 39.68 42.78 41.05 43.46 48.17 54.42 56.63
58.73 58.37 58.86 58.54 58.56 58.72 58.54 58.28 58.20 57.99 57.99 58.15 59.18 59.18 55.01 46.94 46.70 51.83 58.03 57.23 50.34 49.47 47.15 44.63 42.79 41.39 39.86 39.72 40.12 37.68 38.65 41.05 41.67 41.25 40.79 41.45 38.82 38.98 40.14 41.52 40.94 42.63 51.47 54.97 57.52
58.12 57.97 57.99 57.87 57.67 58.10 58.29 58.12 57.66 57.50 57.41 57.78 58.98 59.05 49.25 40.65 52.98 51.70 50.72 50.32 49.50 47.10 45.68 44.34 43.47 42.10 39.87 39.57 38.95 38.64 39.48 39.31 40.19 39.51 39.62 38.53 37.26 39.05 38.49 39.96 39.69 43.08 47.30 51.83 55.56
57.78 57.58 57.50 57.27 57.18 57.52 57.54 57.45 57.27 57.29 57.45 57.89 58.67 55.32 45.82 43.28 52.09 49.95 50.43 48.65 49.30 47.59 45.48 45.22 45.08 42.00 41.09 40.08 40.89 39.48 36.56 36.24 37.40 38.61 37.58 38.57 35.40 37.77 38.93 38.53 39.76 39.77 40.64 47.57 51.98
57.41 57.23 56.98 57.06 57.01 56.90 57.06 57.02 57.17 57.88 58.08 58.46 58.67 50.37 40.66 51.09 51.38 49.76 49.24 47.54 49.23 49.28 47.21 47.26 47.06 44.59 42.10 40.77 39.03 36.07 33.72 31.07 34.39 38.40 38.29 36.00 32.66 35.28 38.31 38.30 39.29 38.49 38.33 39.77 44.59
56.95 56.81 56.90 56.63 56.59 57.03 57.05 57.36 57.68 58.19 58.17 58.29 49.91 43.70 39.68 53.91 48.14 48.80 48.17 47.17 47.61 46.43 47.44 48.84 45.67 40.68 40.23 35.27 32.78 32.88 28.00 29.07 31.80 37.90 37.54 34.74 32.54 36.74 38.19 38.82 38.46 38.35 38.41 39.12 40.05
56.75 56.67 56.60 56.55 56.71 56.73 56.98 57.89 57.77 56.69 55.21 54.29 48.84 39.57 44.07 45.15 49.34 48.68 47.04 48.11 45.40 44.86 44.16 43.41 40.21 35.96 34.60 33.38 28.31 29.46 28.76 29.66 29.56 34.10 35.44 33.31 35.48 37.91 39.71 38.48 39.20 38.13 38.08 38.37 38.93
56.78 56.72 56.77 56.92 56.94 57.19 55.23 51.07 44.57 43.69 46.01 40.68 41.19 40.17 43.37 47.74 49.46 46.16 47.78 46.47 44.23 41.62 35.97 38.50 35.29 32.13 35.99 34.75 31.85 32.66 30.62 29.62 31.91 35.95 34.95 33.94 34.21 37.78 38.99 37.69 38.09 38.33 37.64 38.25 38.88
56.84 57.06 57.20 57.29 57.48 57.88 52.60 43.59 42.92 44.92 39.74 46.41 43.36 45.04 47.04 47.89 43.38 44.60 47.12 41.74 39.88 34.86 36.88 35.76 31.64 36.58 37.45 36.42 35.38 33.60 31.41 30.46 32.85 36.08 34.87 32.97 34.69 36.98 37.60 38.17 37.83 38.64 37.43 37.51 37.51
55.52 56.81 57.26 57.64 58.00 55.67 50.45 49.52 52.83 50.29 39.32 43.70 45.19 43.71 44.82 45.79 41.74 43.25 45.14 41.40 37.79 36.25 34.81 33.42 35.17 38.04 37.12 33.85 34.18 30.94 31.28 30.40 30.07 31.43 31.67 30.89 30.76 32.03 34.99 35.55 36.47 36.53 35.61 36.38 36.71
51.43 53.45 55.88 57.31 54.65 52.19 49.52 53.45 53.09 50.06 34.98 38.84 43.15 45.13 44.90 45.01 40.47 45.60 44.99 42.50 37.52 35.76 35.52 33.95 36.99 36.63 34.89 33.14 34.16 30.30 35.18 34.00 32.54 29.96 26.72 30.17 25.14 30.82 32.70 34.19 35.40 35.90 35.65 36.68 37.50
50.51 51.16 52.73 57.29 51.80 50.54 51.41 53.37 51.60 43.55 21.77 38.24 42.30 47.12 43.64 40.56 40.25 41.08 44.59 41.28 36.96 36.26 36.07 33.54 35.32 34.41 33.61 35.44 36.38 33.27 35.49 33.59 30.69 29.13 26.93 27.77 26.26 30.31 30.13 31.30 34.28 36.17 37.45 38.18 38.80
49.61 50.57 52.22 54.85 54.71 52.94 53.61 52.66 47.94 32.22 19.28 36.64 40.17 39.81 39.53 40.02 39.52 40.67 41.00 42.30 40.30 37.03 35.24 33.84 36.34 35.78 35.68 35.84 35.40 36.19 33.34 31.78 29.25 27.19 22.55 25.93 25.25 26.71 28.92 30.56 32.88 35.61 37.25 38.10 38.88
49.13 49.55 51.25 52.59 51.49 54.19 53.51 48.23 32.61 21.53 34.57 34.32 36.12 38.24 36.96 36.33 37.35 37.62 37.15 35.66 33.53 30.01 29.02 32.18 32.62 35.28 37.16 34.30 35.35 32.59 30.20 23.43 21.95 20.28 20.43 24.75 24.24 27.95 31.29 33.35 34.28 35.20 36.56 37.06 38.04
48.09 48.76 49.17 51.47 52.50 53.77 50.09 41.17 22.85 29.56 31.16 37.11 37.78 37.80 34.79 36.86 35.21 35.96 34.67 33.47 34.76 32.81 29.14 28.73 27.11 34.88 36.90 34.67 32.99 30.68 30.44 24.22 18.29 17.04 21.06 26.12 24.09 29.08 32.12 33.73 36.97 36.80 36.05 37.51 38.64
47.35 45.05 46.59 50.81 52.29 53.01 45.31 33.76 30.24 31.96 37.48 36.08 36.96 34.66 34.62 35.95 35.07 34.16 32.04 31.58 35.21 35.30 31.22 28.12 27.90 34.41 35.18 35.86 37.65 31.50 28.12 30.93 23.99 13.67 19.46 23.54 26.35 31.09 33.84 35.55 36.00 37.02 38.20 38.20 39.01
42.55 42.24 43.27 47.79 51.41 50.21 41.52 35.09 35.20 39.39 40.17 38.74 33.89 36.03 32.31 34.05 33.81 33.08 32.27 35.14 35.05 37.35 36.96 34.58 28.72 32.78 34.00 35.88 35.01 32.93 34.55 27.66 24.72 14.61 14.26 20.57 23.22 25.74 31.30 33.64 34.65 36.25 36.63 37.53 38.50
38.85 37.59 42.68 46.40 50.26 44.11 34.46 35.54 36.98 40.60 41.05 38.37 36.28 34.74 34.34 33.77 34.30 32.99 33.52 34.84 36.73 36.04 36.93 35.08 33.31 29.59 33.25 31.92 31.07 31.45 29.42 29.12 29.71 26.18 19.32 16.41 23.42 31.01 34.73 34.89 35.03 35.53 37.20 36.95 37.63
35.58 28.57 42.17 46.59 39.76 36.22 32.59 38.20 41.08 41.05 41.90 40.75 40.55 38.82 35.05 34.54 33.02 33.68 33.85 34.26 38.47 37.52 34.65 36.01 32.94 26.99 29.54 32.34 33.02 31.87 31.31 30.75 25.40 22.37 22.97 24.04 25.29 36.17 36.29 36.20 36.40 35.77 36.89 36.32 37.84
31.26 31.95 40.80 44.71 33.78 33.91 38.47 39.25 40.85 40.60 40.30 40.07 38.63 39.95 39.91 35.57 33.14 34.92 34.47 38.36 38.95 37.36 35.95 36.62 30.73 21.03 26.99 30.38 30.94 29.09 29.74 30.58 29.68 27.72 22.71 22.65 25.00 34.29 34.67 35.56 35.92 36.22 36.38 37.81 38.11
32.11 27.18 32.41 38.61 38.27 36.99 36.62 36.84 36.62 41.52 40.97 41.39 40.32 39.79 38.75 36.38 38.03 36.58 36.93 39.08 39.56 39.24 42.07 40.26 31.45 30.56 28.23 29.17 31.14 29.07 31.48 30.77 31.86 25.96 26.80 26.41 27.08 31.10 33.29 34.58 35.73 36.26 36.76 36.77 37.44
32.40 28.28 29.94 26.48 31.66 34.49 37.92 37.57 35.76 35.08 40.10 40.82 37.38 38.72 37.34 34.64 35.86 35.74 37.62 38.07 38.86 40.63 39.25 37.53 28.48 31.10 31.36 32.15 31.75 31.39 31.49 31.25 29.54 32.86 29.07 29.79 28.82 34.79 34.77 35.77 35.94 36.62 36.45 35.76 35.99
30.00 28.91 30.31 28.39 28.88 32.95 35.34 34.49 35.34 35.48 37.36 36.56 35.59 38.13 37.73 35.03 36.01 34.57 37.23 36.47 35.79 37.82 37.96 37.89 31.80 32.75 30.88 33.49 33.16 29.98 31.31 31.87 31.55 31.45 31.83 31.93 31.38 37.44 37.25 37.08 35.44 35.45 35.05 34.45 34.74
33.35 35.28 30.97 28.10 27.45 30.62 30.91 32.58 33.81 35.78 36.94 38.54 38.48 37.59 36.62 36.75 39.86 39.49 41.24 40.43 39.81 36.67 35.38 34.84 32.40 31.50 27.59 30.17 31.44 29.26 29.57 30.74 31.13 31.68 32.73 29.78 33.16 35.21 35.60 35.75 34.97 35.00 34.31 34.23 34.25
MSLP
1011.50 1011.62 1011.77 1011.81 1011.96 1012.24 1012.54 1012.60 1012.59 1012.96 1013.01 1013.35 1013.40 1013.68 1013.77 1013.49 1013.32 1013.44 1013.05 1011.97 1011.95 1012.02 1012.12 1012.28 1012.34 1012.46 1012.75 1013.58 1014.04 1014.57 1015.72 1016.56 1016.23 1016.34 1015.68 1015.79 1015.87 1015.86 1016.13 1016.40 1016.74 1016.93 1017.17 1017.34 1017.49
1011.35 1011.41 1011.49 1011.68 1011.87 1012.17 1012.40 1012.74 1012.78 1012.77 1012.99 1013.19 1013.40 1013.51 1013.53 1013.32 1013.25 1012.91 1011.70 1011.79 1011.91 1012.06 1011.96 1012.16 1012.39 1012.49 1013.41 1013.86 1014.32 1014.76 1015.74 1015.73 1015.43 1015.42 1015.37 1015.54 1015.69 1015.80 1016.19 1016.38 1016.75 1017.03 1017.19 1017.41 1017.89
1011.08 1011.26 1011.51 1011.52 1011.74 1012.23 1012.48 1012.59 1012.53 1012.74 1012.66 1013.21 1013.20 1013.55 1013.27 1013.21 1012.88 1011.84 1011.53 1011.63 1011.94 1011.85 1011.85 1011.94 1012.30 1012.66 1013.52 1013.93 1014.40 1014.80 1015.16 1015.13 1015.04 1015.15 1015.14 1015.43 1015.80 1015.90 1016.15 1016.54 1016.40 1016.62 1017.07 1017.82 1018.07
1010.85 1010.94 1011.46 1011.59 1011.71 1012.07 1012.58 1012.76 1012.39 1012.36 1012.51 1012.73 1013.15 1013.29 1013.07 1013.34 1012.93 1011.71 1011.45 1011.61 1011.74 1011.69 1011.91 1012.11 1012.61 1013.26 1013.74 1014.23 1014.41 1014.72 1014.83 1014.98 1015.05 1015.24 1015.31 1015.41 1015.71 1016.16 1016.28 1015.77 1015.99 1016.48 1016.78 1017.56 1018.08
1010.52 1010.71 1011.31 1011.58 1011.63 1012.00 1012.19 1012.36 1012.32 1012.23 1012.46 1012.71 1013.15 1013.09 1013.20 1012.93 1012.17 1011.39 1011.43 1011.72 1011.77 1011.85 1011.97 1012.16 1012.80 1013.34 1013.89 1014.27 1014.51 1014.74 1015.02 1015.08 1015.12 1015.46 1015.50 1015.54 1015.80 1016.23 1016.08 1015.92 1016.13 1016.46 1016.89 1017.42 1017.75
1010.23 1010.80 1011.17 1011.41 1011.59 1012.00 1012.42 1012.55 1012.07 1012.36 1012.48 1012.53 1012.91 1013.17 1012.98 1012.55 1011.59 1011.58 1011.57 1011.79 1012.08 1011.90 1012.03 1012.34 1012.56 1013.08 1014.07 1014.53 1014.86 1015.01 1015.13 1015.43 1015.42 1015.76 1015.81 1015.95 1016.09 1016.23 1015.97 1015.90 1016.36 1016.65 1017.14 1017.55 1017.70
1010.18 1010.60 1011.24 1011.39 1011.61 1011.96 1012.31 1012.51 1012.34 1012.20 1012.36 1012.58 1012.82 1013.10 1012.28 1011.58 1011.45 1011.56 1011.56 1011.92 1011.94 1011.76 1012.16 1012.48 1012.40 1013.22 1014.14 1015.01 1015.26 1015.42 1015.88 1015.85 1015.86 1016.11 1016.25 1016.32 1016.42 1016.26 1016.08 1016.28 1016.66 1016.93 1017.34 1017.79 1017.80
1010.08 1010.60 1010.98 1011.29 1011.82 1012.24 1012.15 1011.83 1011.78 1012.14 1012.06 1012.46 1012.41 1012.57 1011.79 1011.40 1011.68 1011.83 1011.82 1011.95 1011.80 1011.69 1012.43 1012.28 1012.58 1013.50 1014.51 1015.59 1015.66 1016.30 1016.59 1016.86 1016.36 1016.51 1016.71 1016.86 1016.52 1016.08 1016.24 1016.47 1016.86 1017.07 1017.42 1017.72 1017.60
1010.00 1010.66 1011.04 1011.28 1011.85 1012.08 1012.23 1011.98 1012.28 1012.15 1012.12 1012.07 1012.31 1012.37 1012.12 1011.73 1012.02 1011.93 1011.74 1011.91 1011.94 1012.40 1012.48 1012.58 1013.15 1014.60 1015.23 1016.40 1016.82 1017.20 1017.44 1017.43 1016.67 1016.79 1016.95 1017.32 1017.01 1016.52 1016.54 1017.02 1017.41 1017.33 1017.45 1017.60 1017.48
1009.86 1010.58 1011.13 1011.36 1011.55 1011.72 1011.91 1012.00 1011.99 1012.18 1012.35 1012.09 1012.21 1012.53 1012.19 1011.86 1011.78 1011.75 1011.92 1011.88 1012.48 1012.86 1012.97 1013.55 1014.74 1015.41 1016.30 1016.94 1017.11 1017.36 1017.66 1017.59 1017.05 1017.31 1017.29 1017.76 1017.35 1017.29 1016.99 1017.31 1017.53 1017.67 1017.39 1017.62 1017.42
1009.93 1010.62 1011.03 1011.50 1011.53 1011.81 1012.00 1012.17 1012.69 1012.46 1011.79 1011.44 1011.61 1011.86 1011.82 1011.80 1011.65 1012.27 1012.05 1012.12 1012.72 1013.15 1013.95 1014.70 1015.51 1015.84 1016.13 1016.61 1016.65 1016.93 1017.34 1017.54 1017.31 1017.48 1017.61 1018.13 1018.01 1017.45 1017.00 1017.54 1017.39 1017.42 1017.54 1017.41 1017.21
1009.68 1010.39 1010.92 1011.35 1011.44 1011.77 1011.98 1011.75 1011.21 1011.11 1011.99 1011.90 1011.67 1011.94 1011.87 1011.80 1012.18 1012.11 1012.16 1012.86 1012.99 1014.00 1014.53 1015.37 1015.72 1015.66 1016.00 1016.65 1016.88 1017.05 1017.54 1017.81 1017.70 1017.77 1018.15 1018.57 1018.31 1017.72 1017.14 1017.14 1017.42 1017.47 1017.33 1017.31 1017.10
1009.94 1010.14 1010.67 1011.19 1011.40 1011.81 1011.53 1011.36 1011.07 1011.00 1011.49 1011.84 1011.60 1011.59 1011.65 1011.74 1012.16 1012.36 1012.57 1012.79 1013.41 1014.42 1014.71 1015.24 1015.45 1015.52 1015.94 1016.80 1017.08 1017.43 1017.57 1018.02 1018.17 1018.42 1018.86 1019.17 1018.75 1018.19 1017.06 1017.38 1017.43 1017.35 1017.36 1017.44 1017.37
1010.56 1010.41 1010.55 1010.88 1011.60 1011.12 1011.51 1011.21 1011.24 1011.16 1011.39 1011.78 1011.44 1011.32 1011.52 1011.77 1012.61 1012.63 1012.63 1012.89 1013.95 1014.80 1015.28 1015.27 1015.66 1015.64 1016.25 1016.72 1016.99 1017.80 1017.57 1018.09 1018.86 1019.34 1020.06 1020.18 1020.15 1018.76 1017.91 1017.96 1017.88 1018.01 1017.84 1017.88 1018.00
1010.70 1010.75 1010.76 1010.57 1010.59 1011.04 1011.16 1010.73 1010.90 1010.92 1011.65 1011.49 1011.66 1011.70 1011.66 1012.38 1012.97 1013.09 1012.95 1012.96 1013.96 1014.44 1014.87 1015.17 1015.37 1015.94 1016.18 1016.43 1016.59 1017.82 1017.91 1018.71 1019.57 1020.31 1020.95 1021.10 1021.03 1018.88 1018.34 1018.26 1018.54 1018.58 1018.68 1018.51 1018.46
1011.09 1010.95 1010.61 1010.57 1010.60 1010.81 1010.74 1010.68 1011.15 1012.55 1012.12 1011.91 1011.91 1011.76 1012.34 1012.80 1013.39 1013.42 1013.37 1013.26 1013.88 1014.74 1015.28 1015.67 1015.68 1015.91 1015.94 1016.60 1016.74 1017.88 1018.75 1019.91 1020.67 1021.43 1022.12 1021.77 1021.43 1019.60 1018.88 1018.56 1018.88 1019.12 1019.05 1019.03 1018.97
1010.93 1010.82 1010.59 1010.59 1010.72 1010.82 1010.96 1011.45 1012.58 1012.34 1011.74 1012.33 1012.32 1012.36 1012.44 1013.19 1013.79 1013.61 1013.78 1014.07 1014.22 1015.33 1015.98 1016.03 1016.11 1016.17 1016.09 1017.06 1017.44 1017.88 1019.31 1021.08 1022.30 1022.70 1023.19 1022.52 1022.13 1019.97 1018.86 1018.48 1018.88 1019.34 1019.32 1019.22 1019.29
1011.02 1010.83 1010.79 1010.79 1010.87 1011.08 1011.49 1012.12 1012.29 1011.53 1011.82 1011.91 1012.20 1012.73 1013.01 1013.27 1014.03 1014.25 1014.40 1014.63 1014.48 1014.40 1015.89 1016.19 1016.72 1016.15 1016.09 1016.45 1016.87 1017.93 1018.80 1020.19 1021.95 1023.49 1023.56 1023.14 1021.62 1019.92 1019.22 1018.80 1019.02 1019.42 1019.49 1019.47 1019.45
1010.72 1010.84 1010.89 1010.85 1011.04 1011.12 1011.60 1011.81 1010.67 1010.93 1011.01 1011.71 1012.35 1012.91 1013.42 1013.46 1013.75 1014.36 1014.71 1014.56 1014.16 1014.02 1014.58 1015.59 1015.88 1016.08 1016.18 1016.09 1016.41 1018.17 1018.78 1019.56 1021.60 1024.23 1023.85 1022.52 1020.99 1020.10 1019.86 1019.57 1019.52 1019.61 1019.57 1019.85 1019.94
1011.64 1011.86 1011.55 1011.16 1010.97 1011.04 1011.45 1010.92 1010.94 1010.80 1010.73 1010.93 1011.34 1012.08 1012.77 1013.35 1013.90 1014.33 1014.72 1013.88 1013.83 1013.64 1013.53 1014.61 1016.05 1016.57 1016.44 1016.38 1016.89 1017.10 1017.98 1019.58 1021.23 1023.11 1023.76 1022.61 1021.45 1020.34 1020.59 1020.09 1019.93 1019.98 1020.11 1020.24 1020.46
1012.03 1012.30 1012.12 1011.71 1011.35 1011.07 1011.03 1010.93 1011.11 1010.62 1010.74 1010.77 1010.96 1011.62 1012.09 1012.88 1013.38 1013.84 1013.88 1013.69 1013.41 1013.76 1013.98 1014.40 1015.06 1017.39 1017.18 1016.76 1016.65 1017.50 1017.90 1018.93 1019.95 1021.25 1022.08 1022.21 1020.89 1019.39 1020.14 1020.33 1020.19 1020.32 1020.45 1020.51 1020.90
1012.41 1012.61 1011.99 1011.81 1011.67 1011.76 1011.29 1010.70 1010.59 1010.65 1010.70 1010.59 1010.88 1011.11 1011.76 1012.55 1012.95 1013.51 1013.65 1013.70 1013.62 1013.60 1014.36 1014.49 1015.46 1017.11 1017.02 1016.78 1016.73 1016.61 1017.06 1017.73 1019.39 1021.06 1021.44 1021.15 1020.37 1019.66 1020.11 1020.48 1020.61 1020.80 1021.01 1021.17 1021.45
1012.74 1012.54 1011.66 1011.37 1011.16 1011.50 1011.17 1010.85 1010.68 1010.85 1010.86 1011.12 1011.41 1011.39 1011.67 1012.19 1013.01 1013.32 1013.74 1014.21 1013.92 1014.01 1013.93 1014.40 1015.30 1017.05 1017.70 1017.70 1017.43 1017.24 1017.44 1017.78 1018.52 1019.50 1020.29 1020.84 1020.18 1019.97 1020.35 1020.90 1020.99 1021.22 1021.56 1021.77 1022.03
1013.28 1013.32 1013.11 1012.31 1012.01 1011.47 1011.64 1010.91 1010.87 1010.79 1011.12 1011.57 1011.69 1011.88 1012.06 1012.42 1012.79 1013.49 1014.04 1014.38 1014.42 1014.50 1014.43 1014.30 1015.42 1015.93 1016.13 1016.39 1016.64 1017.72 1017.57 1017.87 1018.19 1019.34 1019.20 1019.06 1019.58 1020.12 1020.37 1020.97 1021.31 1021.63 1021.71 1022.01 1022.30
1013.43 1013.45 1013.44 1013.18 1012.56 1011.83 1011.28 1010.80 1010.96 1011.22 1011.41 1011.69 1012.02 1011.99 1012.13 1012.97 1013.58 1013.79 1014.12 1014.71 1014.97 1014.96 1014.93 1014.97 1015.97 1016.65 1017.18 1017.15 1016.92 1016.94 1017.18 1017.74 1017.92 1017.60 1018.58 1018.10 1018.65 1018.62 1019.28 1020.46 1021.08 1021.59 1021.88 1022.11 1022.40
1013.60 1013.79 1013.69 1013.78 1013.14 1012.44 1011.65 1011.32 1011.04 1011.23 1011.47 1011.97 1012.18 1012.47 1012.61 1013.01 1013.44 1014.25 1014.39 1014.73 1014.93 1015.49 1015.51 1015.90 1016.84 1017.41 1018.25 1018.14 1018.01 1017.68 1017.69 1017.84 1017.92 1017.74 1018.08 1018.32 1018.73 1018.47 1019.13 1020.00 1020.89 1021.44 1021.94 1022.30 1022.59
1013.67 1013.76 1013.79 1014.25 1013.74 1013.10 1012.25 1011.95 1011.73 1011.69 1012.01 1011.87 1012.22 1012.61 1012.87 1012.63 1013.04 1013.94 1014.68 1014.86 1015.38 1015.80 1016.34 1016.87 1017.36 1018.03 1018.86 1018.79 1018.64 1018.66 1017.40 1017.65 1017.69 1017.60 1017.69 1018.11 1018.26 1018.88 1019.63 1019.93 1020.51 1021.31 1021.81 1022.14 1022.49
Wind_Speed
11 11 10 10 9 9 10 10 9 8 8 7 8 7 7 4 3 2 5 5 3 5 3 5 3 3 4 4 3 3 6 2 5 6 3 4 4 3 1 5 1 5 5 1 6
13 12 10 11 10 9 9 10 9 7 7 6 7 6 5 3 2 4 4 4 3 3 5 6 5 4 4 2 3 6 4 8 4 4 4 6 2 6 4 2 2 3 1 2 7
13 11 11 10 10 10 8 8 8 7 5 6 5 6 2 3 2 7 6 4 3 1 3 2 5 4 4 2 1 2 5 4 2 2 5 6 2 2 6 2 8 8 6 6 6
12 11 11 10 9 9 8 7 6 4 3 2 5 5 2 2 7 1 4 3 4 3 3 6 4 4 4 5 1 5 2 5 4 0 3 6 6 3 6 6 0 8 5 7 10
12 11 9 9 9 8 7 6 5 3 2 2 5 4 4 2 6 1 5 3 3 3 5 5 5 5 6 5 3 3 3 3 3 4 4 3 2 3 7 7 2 4 7 11 12
13 12 8 8 8 7 8 7 4 3 1 2 5 5 3 5 1 3 5 4 3 4 4 4 7 4 6 5 4 3 4 3 3 1 2 1 0 2 3 5 3 4 7 8 10
13 11 10 9 8 7 6 7 4 2 2 2 4 4 2 4 2 1 4 3 5 3 5 1 6 3 5 6 2 5 5 2 0 0 1 0 4 7 4 4 2 6 5 6 9
13 11 9 8 8 8 6 5 3 4 3 4 3 2 3 1 1 3 3 2 3 4 3 4 5 8 5 2 7 6 6 3 0 4 1 3 9 2 4 3 4 6 7 8 10
13 10 9 7 7 7 6 4 5 4 4 2 1 2 3 1 3 2 2 6 5 3 5 4 7 5 5 5 5 7 3 4 2 3 2 2 6 3 1 5 6 7 7 7 9
13 10 9 7 6 6 5 3 3 2 2 2 0 2 1 5 4 3 2 4 4 4 5 7 6 5 4 3 6 6 3 3 2 2 2 1 9 7 7 5 9 9 8 8 9
12 10 8 8 7 6 3 5 3 1 2 3 2 2 3 0 2 2 2 4 3 8 5 2 5 7 9 5 3 7 4 3 1 1 3 5 6 11 9 6 10 10 8 9 10
12 12 11 8 8 5 4 3 5 4 5 3 1 3 1 3 5 1 2 4 4 5 5 6 5 6 8 5 6 5 5 3 1 3 2 4 9 10 9 8 5 8 8 8 7
8 6 9 9 8 4 3 3 2 1 5 3 3 4 4 3 2 8 5 3 5 6 4 7 3 9 7 4 6 2 5 4 3 2 4 5 7 7 4 3 7 7 4 5 7
10 6 5 10 5 4 3 5 0 2 5 4 4 3 4 4 2 3 1 5 2 8 8 4 3 8 6 5 6 4 6 5 5 4 2 3 5 7 5 8 6 8 8 7 8
10 9 4 9 4 5 3 4 2 3 2 3 3 1 3 5 4 1 1 4 8 6 6 5 7 5 4 6 7 4 4 6 4 6 4 4 3 9 5 4 7 9 8 9 8
10 9 11 3 2 2 2 4 4 7 8 4 2 5 7 2 2 2 2 5 5 5 5 3 1 2 5 4 3 10 7 8 5 4 2 3 5 7 1 3 3 4 8 8 8
12 10 4 1 3 2 2 3 5 6 2 6 5 4 4 5 3 2 6 5 7 7 3 2 1 1 4 7 5 4 6 3 4 3 5 1 2 8 3 1 2 4 6 7 6
8 8 4 1 2 1 3 4 4 6 6 2 4 8 6 6 1 3 7 7 4 5 5 8 4 8 4 6 10 6 7 7 8 5 3 3 6 5 2 3 5 5 3 6 9
6 3 3 4 2 2 4 11 10 7 7 9 5 5 4 4 6 4 6 5 8 10 8 5 3 0 2 3 7 5 4 5 9 3 4 4 5 2 2 5 6 6 8 8 7
3 1 2 7 4 2 4 12 3 3 2 2 7 6 8 8 7 7 9 5 6 9 2 7 4 2 1 3 3 5 9 5 3 4 3 3 6 7 4 4 2 6 6 6 7
3 2 2 5 4 3 7 8 4 4 1 4 4 5 6 8 7 6 8 1 3 6 3 6 5 1 3 7 9 4 3 5 5 5 7 4 7 7 11 7 7 5 6 7 8
2 2 1 2 6 2 4 5 5 5 2 2 2 4 6 7 6 6 10 2 0 6 9 5 6 5 7 2 1 1 6 7 7 5 1 4 5 7 10 7 5 3 4 5 6
2 2 2 3 3 3 3 5 5 5 4 3 2 0 1 6 5 4 6 1 1 6 8 8 3 4 5 3 3 4 4 4 6 4 8 8 6 5 6 6 2 6 5 4 5
2 2 3 2 2 5 5 5 6 2 3 4 3 3 3 3 5 6 4 2 2 2 2 5 3 8 14 4 8 6 6 6 6 4 5 7 7 9 9 5 5 4 4 5 5
2 1 1 2 2 2 3 7 8 5 2 6 1 2 5 5 2 3 3 4 3 4 3 3 6 3 3 4 3 5 7 10 11 15 10 8 9 18 12 8 8 7 5 6 6
3 2 2 1 1 4 5 5 7 4 8 6 4 9 7 6 4 3 4 2 2 3 3 4 3 4 2 2 4 2 3 6 2 4 5 5 4 6 5 8 7 7 6 5 5
1 1 3 3 1 3 4 4 7 10 5 4 11 11 8 13 15 13 9 9 5 4 3 3 4 3 4 1 4 5 9 8 4 3 7 7 7 7 4 5 5 7 6 5 4
Wind_Direction
203 205 205 192 191 191 195 189 191 192 209 218 233 241 262 287 126 134 221 223 168 162 159 142 97 84 64 89 77 140 68 153 187 165 207 149 161 138 240 121 236 196 164 233 133
200 203 201 195 190 188 199 187 187 200 200 228 236 246 259 284 178 241 230 173 159 193 131 144 135 101 57 76 31 88 105 202 187 203 194 174 168 166 155 121 227 274 215 98 132
199 194 198 193 189 187 193 207 183 183 209 225 249 256 274 198 94 240 163 168 167 153 130 96 109 92 85 50 105 145 161 185 194 227 166 153 131 164 134 213 221 202 180 156 146
204 185 188 191 190 188 190 198 194 185 219 275 271 262 236 187 184 159 151 156 129 115 113 104 81 83 113 145 151 101 124 163 147 163 140 150 120 201 198 208 3 244 161 159 167
189 175 176 183 182 184 201 203 191 187 220 246 282 281 188 195 256 134 133 131 110 120 140 114 122 128 141 143 106 109 158 107 82 71 82 108 109 257 254 264 357 86 156 181 185
171 159 173 183 186 190 193 205 222 207 222 320 294 271 211 204 106 134 130 120 167 120 131 136 166 165 104 134 130 149 94 96 78 54 55 138 255 44 270 352 201 145 200 200 200
163 162 177 185 187 210 215 224 212 228 253 260 265 245 163 229 24 34 142 178 168 135 125 166 134 88 121 111 162 98 95 51 33 224 68 191 292 229 265 346 270 243 242 238 235
161 171 184 185 194 199 226 250 261 270 299 258 264 255 212 92 216 138 145 83 85 59 118 104 95 103 75 136 33 74 49 122 223 140 359 103 267 289 16 156 264 260 264 244 239
158 172 186 192 201 194 202 230 245 265 238 221 184 187 220 122 157 169 156 142 92 56 53 70 64 88 67 89 46 28 174 220 339 191 109 144 273 289 209 4 311 294 264 264 276
158 171 187 188 198 210 209 194 232 202 161 161 234 81 181 208 153 121 33 114 111 115 64 50 54 80 56 98 191 169 172 235 208 192 100 107 269 290 283 292 282 285 274 276 264
156 169 181 187 184 197 164 104 90 47 4 183 194 151 126 78 52 57 104 89 91 57 126 19 101 183 189 169 121 128 125 158 198 348 151 225 263 277 286 269 276 266 280 272 267
169 169 170 181 180 180 135 191 199 165 153 196 169 102 147 201 109 50 111 136 114 129 121 54 212 195 121 137 120 124 132 186 91 55 121 8 287 269 276 267 267 300 298 292 294
83 144 168 172 163 147 185 226 333 258 112 195 172 159 169 151 126 176 146 109 111 125 167 151 215 139 122 142 131 119 151 180 144 68 67 336 311 329 298 351 339 337 320 352 311
48 64 160 167 150 168 207 164 214 260 89 204 219 196 106 136 66 334 50 126 95 165 152 162 150 139 125 161 125 170 189 133 127 86 210 17 284 304 331 333 29 13 19 14 6
29 25 342 201 140 163 161 137 128 39 142 179 150 117 91 142 141 309 323 74 155 150 116 221 152 141 133 191 153 180 122 116 96 94 77 339 81 271 8 37 1 359 10 18 9
27 359 336 142 109 81 130 115 54 60 236 148 110 158 114 72 49 105 119 44 126 92 37 99 1 154 160 74 90 155 78 50 58 91 33 260 146 283 111 72 12 3 17 18 12
21 350 7 305 129 38 109 100 75 160 295 179 174 174 119 138 106 133 160 163 152 116 163 71 114 315 119 83 46 86 88 16 9 20 212 356 86 236 273 91 121 55 23 21 22
40 354 345 31 3 67 134 108 153 196 190 110 118 119 164 142 114 127 134 185 244 97 132 154 208 170 185 170 165 174 161 155 190 185 208 75 224 257 348 19 76 60 40 56 42
18 342 48 5 311 185 151 192 200 186 151 142 76 109 166 205 133 139 196 207 197 182 146 133 228 344 84 136 144 188 183 162 105 27 61 217 275 17 2 53 42 57 48 37 39
75 33 309 329 323 143 186 206 192 146 126 189 150 164 170 179 148 176 167 192 206 191 153 199 117 355 86 102 30 158 160 83 0 130 218 274 283 193 185 138 96 52 44 28 26
75 122 231 322 286 150 192 205 203 215 164 163 160 141 164 170 162 190 196 255 192 187 164 146 107 253 127 214 163 132 167 58 114 145 159 155 250 186 161 164 115 72 30 32 30
76 195 246 274 188 105 168 181 176 163 143 105 110 106 156 165 148 177 196 269 307 153 170 192 121 157 201 282 266 177 180 151 141 216 269 141 264 151 152 146 145 145 45 46 57
113 306 350 314 180 156 171 176 168 161 135 112 113 21 193 152 128 152 143 45 227 164 158 183 201 77 1 350 357 206 185 129 105 83 192 140 240 168 144 140 128 129 111 82 63
120 153 348 28 328 164 171 181 137 63 129 126 113 91 132 97 17 147 132 163 44 88 25 107 119 196 213 182 137 188 183 182 160 171 168 216 145 202 206 169 158 162 147 118 87
32 127 340 182 228 178 229 162 164 153 91 126 117 220 176 135 103 122 111 121 65 335 61 114 145 104 55 51 107 166 175 178 193 210 188 194 173 200 200 182 175 165 144 108 69
137 131 48 128 312 209 190 210 167 132 152 178 157 171 137 135 133 134 123 126 166 49 79 3 115 123 136 60 49 168 178 183 169 147 109 155 231 218 129 127 144 154 136 101 77
297 13 89 339 119 169 234 165 191 148 215 183 190 175 194 199 173 180 191 166 174 157 105 111 126 138 186 112 75 274 205 185 177 183 145 196 192 149 150 153 163 151 123 98 69